Regional Weather Roundup
Issued by NWS Albany, NY

Home | Current Version | Previous Version | Graphics & Text | Print | Product List | Glossary Off
Versions: 1 2 3 4 5 6 7 8 9 10 11 12 13 14 15 16 17 18 19 20 21 22 23 24 25 26 27

000
ASUS41 KALY 242310
RWRALY

NEW YORK STATE HOURLY WEATHER ROUNDUP
NATIONAL WEATHER SERVICE ALBANY NY
700 PM EDT SAT JUN 24 2017

NOTE: "FAIR" INDICATES FEW OR NO CLOUDS BELOW 12,000 FEET WITH NO
SIGNIFICANT WEATHER AND/OR NO OBSTRUCTIONS TO VISIBILITY.

NYZ032-033-038>043-046>054-057>066-NYZ062>081-082-084-250000-
EAST


CITY           SKY/WX    TMP DP  RH WIND       PRES   REMARKS
ALBANY         MOSUNNY   78  54  43 NW10      29.77R
GLENS FALLS    SUNNY     78  51  38 W10G18    29.76R
POUGHKEEPSIE   SUNNY     82  52  35 SW10      29.77S
NEWBURGH       MOSUNNY   81  57  44 W9        29.81R
MONTGOMERY     SUNNY     82  55  39 W5        29.79S
WHITE PLAINS   MOSUNNY   81  52  36 W6        29.81R
ISLIP          MOSUNNY   83  54  36 NW10      29.80R
NEW YORK CITY  MOSUNNY   85  54  34 W13       29.79R
CENTRAL PARK   SUNNY     82  55  39 CALM      29.83R
$$

NYZ005>009-017-018-044>046-055-056-250000-
CENTRAL


CITY           SKY/WX    TMP DP  RH WIND       PRES   REMARKS
FULTON         MOSUNNY   70  55  59 W12       29.83R
SYRACUSE       PTSUNNY   71  52  50 NW13      29.82R
ROME           SUNNY     72  52  49 NW15      29.82R
ELMIRA         NOT AVBL
BINGHAMTON     NOT AVBL
MONTICELLO     SUNNY     77  54  44 W5        29.85R
$$

NYZ026>034-041>043-087-250000-
NORTH


CITY           SKY/WX    TMP DP  RH WIND       PRES   REMARKS
WATERTOWN      SUNNY     71  55  56 SW13G22   29.79R
FORT DRUM      NOT AVBL
OGDENSBURG     FAIR      74  58  55 SW9G16    29.73R
MASSENA        CLOUDY    71  57  61 SW6       29.73R
SARANAC LAKE   MOSUNNY   68  51  54 SW13G23   29.77R
PLATTSBURGH    MOSUNNY   78  50  37 W9G23     29.69R
$$

NYZ001>004-010>016-019>021-085-250000-
WEST


CITY           SKY/WX    TMP DP  RH WIND       PRES   REMARKS
NIAGARA FALLS  LGT RAIN  69  60  73 W12       29.87R
BUFFALO        CLOUDY    69  60  73 SW16G28   29.86R
DUNKIRK        MOSUNNY   70  59  68 W10G23    29.90R
JAMESTOWN      SUNNY     70  50  49 W10G20    29.93R
WELLSVILLE     SUNNY     70  46  42 W25G31    29.93R
ROCHESTER      LGT RAIN  63  57  81 W9        29.87S
PENN YAN       MOSUNNY   72  53  51 NW9       29.87R
$$

             KEY
       WCI = WIND CHILL INDEX
       VSB = VISIBILITY
       HX  = HEAT INDEX
$$




USA.gov is the U.S. government's official web portal to all federal, state and local government web resources and services.